Phnom Penh, Cambodia

2:29 PM +07 on May 21, 2018 (GMT +0700)
Pochentong International

Weather History for VDPP - January, 2013

Change the Weather History Date:

Saturday, January 19, 2013

  Actual Average Record
Temperature  
Mean Temperature 78 °F -  
Max Temperature 87 °F 87 °F 102 °F (2015)
Min Temperature 68 °F 73 °F 66 °F (2014)
Cooling Degree Days 12    
Growing Degree Days 28 (Base 50)    
Moisture  
Dew Point 58 °F    
Average Humidity 46    
Maximum Humidity 72    
Minimum Humidity 33    
Precipitation  
Precipitation 0.00 in - - ()
Sea Level Pressure  
Sea Level Pressure 29.92 in    
Wind  
Wind Speed 9 mph ()    
Max Wind Speed 20 mph    
Max Gust Speed -    
Visibility 5.5 miles    
Events      
Averages and records for this station are not official NWS values.
T = Trace of Precipitation, MM = Missing Value Source: Averaged Metar Reports

Daily Weather History Graph

Daily Weather History Graph

Search for Another Location

Airport or City:

Astronomy

Jan. 19, 2013 Rise Set
Actual Time 6:24 AM +07 5:57 PM +07
Civil Twilight 6:02 AM +07 6:20 PM +07
Nautical Twilight 5:36 AM +07 6:46 PM +07
Astronomical Twilight 5:10 AM +07 7:11 PM +07
Moon 11:49 AM +07 (1/19) No Moon Set
Length of Visible Light 12h 17m
Length of Day
11h 32m
First Quarter, 52% of the Moon is Illuminated
Jan 19
First Quarter
Jan 27
Full
Feb 3
Last Quarter
Feb 10
New
Feb 18
First Quarter

Hourly Weather History & Observations

Time (+07) Temp. Heat Index Dew Point Humidity Pressure Visibility Wind Dir Wind Speed Gust Speed Precip Events Conditions
12:00 AM 77.0 °F - 59.0 °F 54% 29.92 in 6.2 mi NE 10.4 mph - N/A   Partly Cloudy
12:30 AM 77.0 °F - 59.0 °F 54% 29.92 in 6.2 mi NE 10.4 mph - N/A   Partly Cloudy
1:00 AM 77.0 °F - 59.0 °F 54% 29.92 in 6.2 mi NE 9.2 mph - N/A   Partly Cloudy
6:30 AM 71.6 °F - 59.0 °F 64% 29.95 in 5.6 mi North 5.8 mph - N/A   Unknown
7:00 AM 78 °F - 71 °F 72% 30.00 in 6 mi NE 4.5 mph - -   Scattered Clouds
7:00 AM 71.6 °F - 59.0 °F 64% 29.98 in 5.6 mi North 5.8 mph - N/A   Unknown
7:30 AM 73.4 °F - 57.2 °F 57% 29.98 in 5.6 mi NNE 9.2 mph - N/A   Unknown
8:00 AM 75.2 °F - 57.2 °F 53% 29.98 in 5.6 mi NNE 8.1 mph - N/A   Unknown
8:30 AM 77.0 °F - 57.2 °F 50% 30.01 in - NE 19.6 mph - N/A   Clear
9:00 AM 77.0 °F - 57.2 °F 50% 30.01 in - NE 19.6 mph - N/A   Clear
9:30 AM 78.8 °F - 57.2 °F 47% 29.98 in - NE 19.6 mph - N/A   Clear
10:00 AM 80.6 °F 80.8 °F 57.2 °F 45% 29.98 in - ENE 18.4 mph - N/A   Clear
10:30 AM 80.6 °F 80.8 °F 57.2 °F 45% 29.98 in - ENE 18.4 mph - N/A   Clear
11:00 AM 82.4 °F 82.0 °F 57.2 °F 42% 29.98 in - NE 15.0 mph - N/A   Clear
12:00 PM 84.2 °F 83.5 °F 57.2 °F 40% 29.95 in - NE 11.5 mph - N/A   Clear
12:30 PM 84.2 °F 83.5 °F 57.2 °F 40% 29.92 in 6.2 mi NE 5.8 mph - N/A   Partly Cloudy
1:00 PM 86.0 °F 84.5 °F 55.4 °F 35% - 6.2 mi NE 9.2 mph - N/A   Partly Cloudy
1:30 PM 86.0 °F 84.5 °F 55.4 °F 35% 29.89 in 6.2 mi NNE 12.7 mph - N/A   Partly Cloudy
2:00 PM 86.0 °F 84.5 °F 55.4 °F 35% 29.89 in 6.2 mi NNE 11.5 mph - N/A   Partly Cloudy
2:30 PM 87.8 °F 86.1 °F 55.4 °F 33% 29.86 in 6.2 mi NE 15.0 mph - N/A   Partly Cloudy
3:00 PM 87.8 °F 86.1 °F 55.4 °F 33% 29.86 in 6.2 mi NNE 12.7 mph - N/A   Partly Cloudy
3:30 PM 87.8 °F 86.1 °F 55.4 °F 33% 29.83 in 6.2 mi NNE 10.4 mph - N/A   Partly Cloudy
4:00 PM 87.8 °F 86.1 °F 55.4 °F 33% 29.83 in - North 6.9 mph - N/A   Clear
4:30 PM 87.8 °F 86.1 °F 55.4 °F 33% 29.86 in - NNE 8.1 mph - N/A   Clear
5:00 PM 86.0 °F 84.9 °F 57.2 °F 37% 29.86 in - NNW 8.1 mph - N/A   Clear
5:30 PM 86.0 °F 84.5 °F 55.4 °F 35% 29.86 in 5.0 mi North 6.9 mph - N/A   Unknown
6:00 PM 84.2 °F 83.5 °F 57.2 °F 40% 29.89 in 5.0 mi NNW 4.6 mph - N/A   Unknown
6:30 PM 84.2 °F 83.8 °F 59.0 °F 42% 29.89 in 5.0 mi NNW 4.6 mph - N/A   Unknown
7:00 PM 84.2 °F 84.4 °F 60.8 °F 45% 29.89 in 5.0 mi North 3.5 mph - N/A   Unknown
7:30 PM 80.6 °F 81.5 °F 60.8 °F 51% 29.92 in 5.0 mi NNW 2.3 mph - N/A   Partly Cloudy
8:00 PM 80.6 °F 81.8 °F 62.6 °F 54% 29.92 in 5.0 mi NNW 3.5 mph - N/A   Partly Cloudy
8:30 PM 80.6 °F 81.5 °F 60.8 °F 51% 29.92 in 5.0 mi NNW 4.6 mph - N/A   Partly Cloudy
9:00 PM 80.6 °F 81.5 °F 60.8 °F 51% 29.92 in 5.0 mi NNW 4.6 mph - N/A   Partly Cloudy
9:30 PM 80.6 °F 81.1 °F 59.0 °F 48% 29.92 in 5.0 mi NNW 5.8 mph - N/A   Partly Cloudy
10:00 PM 80.6 °F 81.1 °F 59.0 °F 48% 29.92 in 5.0 mi NNW 5.8 mph - N/A   Partly Cloudy
10:30 PM 78.8 °F - 59.0 °F 51% 29.92 in 5.0 mi NNW 5.8 mph - N/A   Partly Cloudy
11:00 PM 78.8 °F - 59.0 °F 51% 29.92 in 5.0 mi NNW 5.8 mph - N/A   Partly Cloudy
11:30 PM 77.0 °F - 57.2 °F 50% 29.92 in 5.0 mi NNW 3.5 mph - N/A   Partly Cloudy